Time,TemperatureF,DewpointF,PressureIn,WindDirection,WindDirectionDegrees,WindSpeedMPH,WindSpeedGustMPH,Humidity,HourlyPrecipIn,Conditions,Clouds,dailyrainin,SoftwareType,DateUTC
2013-01-28 00:11:00,22.9,19.0,30.52,NNE,23,0.0,1.0,85,0.00,,,0.00,weatherlink.com 1.10,2013-01-28 05:11:00,
2013-01-28 00:27:00,23.4,20.0,30.52,NNE,23,0.0,1.0,85,0.00,,,0.00,weatherlink.com 1.10,2013-01-28 05:27:00,
2013-01-28 00:42:00,23.6,20.0,30.51,NNE,23,0.0,2.0,85,0.00,,,0.00,weatherlink.com 1.10,2013-01-28 05:42:00,
2013-01-28 00:57:00,23.9,21.0,30.50,NNE,23,1.0,3.0,87,0.00,,,0.00,weatherlink.com 1.10,2013-01-28 05:57:00,
2013-01-28 01:12:00,24.5,21.0,30.50,NNE,26,0.0,3.0,87,0.00,,,0.00,weatherlink.com 1.10,2013-01-28 06:12:00,
2013-01-28 01:27:00,25.1,21.0,30.49,ENE,65,0.0,3.0,85,0.00,,,0.00,weatherlink.com 1.10,2013-01-28 06:27:00,
2013-01-28 01:42:00,25.5,22.0,30.48,ENE,74,2.0,2.0,85,0.00,,,0.00,weatherlink.com 1.10,2013-01-28 06:42:00,
2013-01-28 01:57:00,25.6,22.0,30.48,ENE,74,0.0,2.0,86,0.00,,,0.00,weatherlink.com 1.10,2013-01-28 06:57:00,
2013-01-28 02:12:00,27.3,23.0,30.48,SSW,202,4.0,4.0,85,0.00,,,0.00,weatherlink.com 1.10,2013-01-28 07:12:00,
2013-01-28 02:27:00,29.4,24.0,30.47,South,186,2.0,8.0,81,0.00,,,0.00,weatherlink.com 1.10,2013-01-28 07:27:00,
2013-01-28 02:42:00,29.6,24.0,30.47,South,179,3.0,7.0,80,0.00,,,0.00,weatherlink.com 1.10,2013-01-28 07:42:00,
2013-01-28 02:57:00,29.7,24.0,30.46,South,178,5.0,8.0,79,0.00,,,0.00,weatherlink.com 1.10,2013-01-28 07:57:00,
2013-01-28 03:12:00,29.7,24.0,30.45,SW,215,4.0,7.0,79,0.00,,,0.00,weatherlink.com 1.10,2013-01-28 08:12:00,
2013-01-28 03:27:00,29.8,24.0,30.45,SSW,200,5.0,7.0,78,0.00,,,0.00,weatherlink.com 1.10,2013-01-28 08:27:00,
2013-01-28 03:42:00,29.9,24.0,30.44,SSW,192,6.0,10.0,78,0.00,,,0.00,weatherlink.com 1.10,2013-01-28 08:42:00,
2013-01-28 03:57:00,30.1,24.0,30.43,SSW,207,5.0,6.0,78,0.00,,,0.00,weatherlink.com 1.10,2013-01-28 08:57:00,
2013-01-28 04:12:00,30.2,24.0,30.44,SSW,194,7.0,10.0,79,0.00,,,0.00,weatherlink.com 1.10,2013-01-28 09:12:00,
2013-01-28 04:27:00,29.8,26.0,30.43,South,189,6.0,12.0,84,0.00,,,0.00,weatherlink.com 1.10,2013-01-28 09:27:00,
2013-01-28 04:42:00,29.5,26.0,30.42,South,178,5.0,10.0,87,0.00,,,0.00,weatherlink.com 1.10,2013-01-28 09:42:00,
2013-01-28 04:57:00,29.7,26.0,30.41,SSE,159,1.0,5.0,87,0.00,,,0.00,weatherlink.com 1.10,2013-01-28 09:57:00,
2013-01-28 05:12:00,29.9,27.0,30.40,SE,143,2.0,3.0,87,0.00,,,0.00,weatherlink.com 1.10,2013-01-28 10:12:00,
2013-01-28 05:27:00,30.0,26.0,30.41,South,174,0.0,2.0,86,0.00,,,0.00,weatherlink.com 1.10,2013-01-28 10:27:00,
2013-01-28 05:42:00,30.7,27.0,30.41,SSW,205,0.0,7.0,85,0.00,,,0.00,weatherlink.com 1.10,2013-01-28 10:42:00,
2013-01-28 05:57:00,30.7,26.0,30.40,South,185,4.0,8.0,84,0.00,,,0.00,weatherlink.com 1.10,2013-01-28 10:57:00,
2013-01-28 06:12:00,30.4,27.0,30.40,SSE,148,3.0,5.0,86,0.00,,,0.00,weatherlink.com 1.10,2013-01-28 11:12:00,
2013-01-28 06:27:00,30.4,27.0,30.40,SSE,149,4.0,6.0,86,0.00,,,0.00,weatherlink.com 1.10,2013-01-28 11:27:00,
2013-01-28 06:42:00,30.2,27.0,30.41,South,187,6.0,12.0,89,0.00,,,0.00,weatherlink.com 1.10,2013-01-28 11:42:00,
2013-01-28 06:57:00,29.7,27.0,30.41,SSW,205,7.0,11.0,91,0.00,,,0.00,weatherlink.com 1.10,2013-01-28 11:57:00,
2013-01-28 07:12:00,29.6,28.0,30.40,SSW,208,5.0,7.0,92,0.00,,,0.00,weatherlink.com 1.10,2013-01-28 12:12:00,
2013-01-28 07:27:00,29.8,28.0,30.40,SSW,196,5.0,13.0,92,0.00,,,0.00,weatherlink.com 1.10,2013-01-28 12:27:00,
2013-01-28 07:42:00,30.0,28.0,30.40,SSW,194,7.0,10.0,92,0.00,,,0.00,weatherlink.com 1.10,2013-01-28 12:42:00,
2013-01-28 07:57:00,30.3,28.0,30.40,South,189,8.0,13.0,92,0.00,,,0.00,weatherlink.com 1.10,2013-01-28 12:57:00,
2013-01-28 08:13:00,30.6,29.0,30.38,South,184,8.0,13.0,92,0.00,,,0.00,weatherlink.com 1.10,2013-01-28 13:13:00,
2013-01-28 08:28:00,31.2,29.0,30.37,South,171,4.0,14.0,91,0.00,,,0.00,weatherlink.com 1.10,2013-01-28 13:28:00,
2013-01-28 08:43:00,31.6,29.0,30.36,South,175,6.0,10.0,91,0.00,,,0.00,weatherlink.com 1.10,2013-01-28 13:43:00,
2013-01-28 08:58:00,32.0,30.0,30.35,SSE,167,6.0,11.0,91,0.00,,,0.00,weatherlink.com 1.10,2013-01-28 13:58:00,
2013-01-28 09:13:00,32.1,30.0,30.35,SSE,168,13.0,16.0,90,0.00,,,0.00,weatherlink.com 1.10,2013-01-28 14:13:00,
2013-01-28 09:28:00,32.1,30.0,30.35,SSW,204,10.0,17.0,90,0.00,,,0.00,weatherlink.com 1.10,2013-01-28 14:28:00,
2013-01-28 09:43:00,32.2,30.0,30.35,South,177,7.0,13.0,90,0.00,,,0.00,weatherlink.com 1.10,2013-01-28 14:43:00,
2013-01-28 09:58:00,32.3,30.0,30.34,SSW,193,9.0,15.0,91,0.00,,,0.00,weatherlink.com 1.10,2013-01-28 14:58:00,
2013-01-28 10:13:00,32.4,30.0,30.33,SSW,207,9.0,13.0,91,0.00,,,0.00,weatherlink.com 1.10,2013-01-28 15:13:00,
2013-01-28 10:28:00,32.4,30.0,30.32,South,186,9.0,15.0,91,0.00,,,0.00,weatherlink.com 1.10,2013-01-28 15:28:00,
2013-01-28 10:43:00,32.4,30.0,30.32,South,187,13.0,13.0,91,0.00,,,0.00,weatherlink.com 1.10,2013-01-28 15:43:00,
2013-01-28 10:58:00,32.4,30.0,30.29,South,175,9.0,15.0,92,0.00,,,0.00,weatherlink.com 1.10,2013-01-28 15:58:00,
2013-01-28 11:13:00,32.6,31.0,30.29,South,173,7.0,16.0,92,0.00,,,0.00,weatherlink.com 1.10,2013-01-28 16:13:00,
2013-01-28 11:28:00,32.6,31.0,30.29,SSW,196,7.0,14.0,92,0.00,,,0.00,weatherlink.com 1.10,2013-01-28 16:28:00,
2013-01-28 11:43:00,32.5,31.0,30.28,SSW,198,9.0,15.0,92,0.00,,,0.00,weatherlink.com 1.10,2013-01-28 16:43:00,
2013-01-28 11:58:00,32.5,31.0,30.26,SSW,205,8.0,15.0,93,0.00,,,0.00,weatherlink.com 1.10,2013-01-28 16:58:00,
2013-01-28 12:13:00,32.4,31.0,30.25,South,188,12.0,14.0,93,0.00,,,0.00,weatherlink.com 1.10,2013-01-28 17:13:00,
2013-01-28 12:28:00,32.5,31.0,30.24,South,174,6.0,9.0,93,0.00,,,0.00,weatherlink.com 1.10,2013-01-28 17:28:00,
2013-01-28 12:43:00,32.5,31.0,30.22,South,179,7.0,11.0,93,0.00,,,0.00,weatherlink.com 1.10,2013-01-28 17:43:00,
2013-01-28 12:58:00,32.5,31.0,30.19,SSW,194,7.0,14.0,94,0.01,,,0.01,weatherlink.com 1.10,2013-01-28 17:58:00,
2013-01-28 13:13:00,32.6,31.0,30.20,SSW,198,7.0,12.0,93,0.02,,,0.02,weatherlink.com 1.10,2013-01-28 18:13:00,
2013-01-28 13:28:00,32.6,31.0,30.18,SSW,196,5.0,12.0,93,0.02,,,0.02,weatherlink.com 1.10,2013-01-28 18:28:00,
2013-01-28 13:43:00,32.6,31.0,30.17,South,179,6.0,11.0,94,0.02,,,0.02,weatherlink.com 1.10,2013-01-28 18:43:00,
2013-01-28 13:58:00,32.6,31.0,30.16,South,190,5.0,9.0,94,0.01,,,0.02,weatherlink.com 1.10,2013-01-28 18:58:00,
2013-01-28 14:13:00,32.5,31.0,30.15,SSW,207,6.0,10.0,94,0.01,,,0.03,weatherlink.com 1.10,2013-01-28 19:13:00,
2013-01-28 14:28:00,32.6,31.0,30.15,SW,234,7.0,8.0,95,0.01,,,0.03,weatherlink.com 1.10,2013-01-28 19:28:00,
2013-01-28 14:43:00,32.6,31.0,30.14,SSW,208,6.0,8.0,95,0.01,,,0.03,weatherlink.com 1.10,2013-01-28 19:43:00,
2013-01-28 14:58:00,32.6,31.0,30.14,SSW,198,6.0,11.0,95,0.02,,,0.04,weatherlink.com 1.10,2013-01-28 19:58:00,
2013-01-28 15:13:00,32.6,32.0,30.14,SSW,200,2.0,7.0,96,0.02,,,0.05,weatherlink.com 1.10,2013-01-28 20:13:00,
2013-01-28 15:28:00,32.6,32.0,30.13,South,189,5.0,6.0,96,0.02,,,0.05,weatherlink.com 1.10,2013-01-28 20:28:00,
2013-01-28 15:43:00,32.7,32.0,30.12,SSW,202,3.0,7.0,96,0.02,,,0.05,weatherlink.com 1.10,2013-01-28 20:43:00,
2013-01-28 15:58:00,32.7,32.0,30.12,SSW,194,3.0,4.0,96,0.02,,,0.06,weatherlink.com 1.10,2013-01-28 20:58:00,
2013-01-28 16:13:00,32.8,32.0,30.12,SSW,204,2.0,4.0,96,0.01,,,0.06,weatherlink.com 1.10,2013-01-28 21:13:00,
2013-01-28 16:28:00,32.8,32.0,30.13,SW,217,2.0,5.0,96,0.02,,,0.07,weatherlink.com 1.10,2013-01-28 21:28:00,
2013-01-28 16:43:00,32.9,32.0,30.12,SSW,198,4.0,4.0,96,0.02,,,0.07,weatherlink.com 1.10,2013-01-28 21:43:00,
2013-01-28 16:58:00,32.9,32.0,30.12,SSW,209,3.0,5.0,96,0.01,,,0.07,weatherlink.com 1.10,2013-01-28 21:58:00,
2013-01-28 17:14:00,33.0,32.0,30.12,South,190,3.0,6.0,96,0.01,,,0.07,weatherlink.com 1.10,2013-01-28 22:14:00,
2013-01-28 17:29:00,33.1,32.0,30.11,SSW,200,3.0,6.0,96,0.00,,,0.07,weatherlink.com 1.10,2013-01-28 22:29:00,
2013-01-28 17:44:00,33.2,32.0,30.11,SSW,196,0.0,4.0,96,0.00,,,0.07,weatherlink.com 1.10,2013-01-28 22:44:00,
2013-01-28 17:59:00,33.3,32.0,30.11,SSW,205,2.0,4.0,96,0.00,,,0.07,weatherlink.com 1.10,2013-01-28 22:59:00,
2013-01-28 18:14:00,33.3,32.0,30.10,South,190,2.0,5.0,96,0.00,,,0.07,weatherlink.com 1.10,2013-01-28 23:14:00,
2013-01-28 18:29:00,33.4,32.0,30.11,SSW,194,2.0,4.0,96,0.00,,,0.07,weatherlink.com 1.10,2013-01-28 23:29:00,
2013-01-28 18:44:00,33.6,33.0,30.11,SSW,194,2.0,3.0,97,0.00,,,0.07,weatherlink.com 1.10,2013-01-28 23:44:00,
2013-01-28 18:59:00,33.8,33.0,30.10,SSW,194,0.0,2.0,97,0.02,,,0.09,weatherlink.com 1.10,2013-01-28 23:59:00,
2013-01-28 19:14:00,33.9,33.0,30.10,SSW,209,0.0,0.0,96,0.02,,,0.09,weatherlink.com 1.10,2013-01-29 00:14:00,
2013-01-28 19:29:00,33.9,33.0,30.10,SSW,209,0.0,0.0,96,0.02,,,0.09,weatherlink.com 1.10,2013-01-29 00:29:00,
2013-01-28 19:44:00,33.9,33.0,30.09,SSW,211,1.0,2.0,96,0.02,,,0.09,weatherlink.com 1.10,2013-01-29 00:44:00,
2013-01-28 19:59:00,33.9,33.0,30.09,SSW,211,0.0,0.0,96,0.00,,,0.09,weatherlink.com 1.10,2013-01-29 00:59:00,
2013-01-28 20:14:00,33.9,33.0,30.09,SSW,211,0.0,0.0,97,0.00,,,0.09,weatherlink.com 1.10,2013-01-29 01:14:00,
2013-01-28 20:29:00,33.8,33.0,30.08,SSW,211,0.0,1.0,97,0.00,,,0.09,weatherlink.com 1.10,2013-01-29 01:29:00,
2013-01-28 20:44:00,34.0,33.0,30.08,SSW,211,0.0,1.0,97,0.00,,,0.09,weatherlink.com 1.10,2013-01-29 01:44:00,
2013-01-28 20:59:00,34.1,33.0,30.07,SSW,211,0.0,2.0,97,0.00,,,0.09,weatherlink.com 1.10,2013-01-29 01:59:00,
2013-01-28 21:14:00,34.1,33.0,30.07,SSW,211,0.0,0.0,97,0.00,,,0.09,weatherlink.com 1.10,2013-01-29 02:14:00,
2013-01-28 21:29:00,34.3,34.0,30.07,SSW,211,0.0,1.0,97,0.00,,,0.09,weatherlink.com 1.10,2013-01-29 02:29:00,
2013-01-28 21:44:00,34.4,34.0,30.07,SSW,211,0.0,0.0,97,0.00,,,0.09,weatherlink.com 1.10,2013-01-29 02:44:00,
2013-01-28 21:59:00,34.4,34.0,30.07,SSW,211,0.0,0.0,97,0.01,,,0.10,weatherlink.com 1.10,2013-01-29 02:59:00,
2013-01-28 22:14:00,34.5,34.0,30.06,SSW,211,0.0,0.0,97,0.01,,,0.10,weatherlink.com 1.10,2013-01-29 03:14:00,
2013-01-28 22:29:00,34.5,34.0,30.06,SSW,211,0.0,0.0,97,0.01,,,0.10,weatherlink.com 1.10,2013-01-29 03:29:00,
2013-01-28 22:44:00,34.6,34.0,30.07,SSW,211,0.0,1.0,97,0.01,,,0.10,weatherlink.com 1.10,2013-01-29 03:44:00,
2013-01-28 22:59:00,34.6,34.0,30.07,SSW,211,0.0,0.0,97,0.00,,,0.10,weatherlink.com 1.10,2013-01-29 03:59:00,
2013-01-28 23:14:00,34.7,34.0,30.07,SSW,211,0.0,0.0,97,0.00,,,0.10,weatherlink.com 1.10,2013-01-29 04:14:00,
2013-01-28 23:29:00,34.6,34.0,30.07,SSW,211,0.0,0.0,97,0.00,,,0.10,weatherlink.com 1.10,2013-01-29 04:29:00,
2013-01-28 23:44:00,34.8,34.0,30.07,SSW,211,0.0,0.0,97,0.00,,,0.10,weatherlink.com 1.10,2013-01-29 04:44:00,
2013-01-28 23:59:00,35.0,34.0,30.07,SSW,211,0.0,0.0,97,0.00,,,0.10,weatherlink.com 1.10,2013-01-29 04:59:00,